Weather History for Port Isabel, TX

Change the Weather History Date:

Thursday, January 9, 2014

  Actual Average Record
Temperature  
Mean Temperature 68 °F -  
Max Temperature 73 °F - - ()
Min Temperature 62 °F - - ()
Cooling Degree Days 2    
Growing Degree Days 18 (Base 50)    
Moisture  
Dew Point 63 °F    
Average Humidity 89    
Maximum Humidity 94    
Minimum Humidity 83    
Precipitation  
Precipitation 0.11 in - - ()
Sea Level Pressure  
Sea Level Pressure 30.09 in    
Wind  
Wind Speed 7 mph (SE)    
Max Wind Speed 17 mph    
Max Gust Speed 23 mph    
Visibility 6 miles    
Events Rain    
T = Trace of Precipitation, MM = Missing Value Source: NWS Daily Summary

Daily Weather History Graph

Daily Weather History Graph

Search for Another Location

Airport:

Trip Planner

Search our weather history database for the weather conditions in past years. The results will help you decide how hot, cold, wet, or windy it might be!

Date:

Astronomy

Jan. 09, 2014 Rise Set
Actual Time 7:18 AM CST 5:54 PM CST
Civil Twilight 6:53 AM CST 6:19 PM CST
Nautical Twilight 6:24 AM CST 6:48 PM CST
Astronomical Twilight 5:56 AM CST 7:16 PM CST
Moon 1:10 PM CST (1/9) 1:41 AM CST (1/9)
Length of Visible Light 11h 26m
Length of Day
10h 36m
Waxing Gibbous, 66% of the Moon is Illuminated
Jan 9
Waxing Gibbous
Jan 15
Full
Jan 23
Last Quarter
Jan 30
New
Feb 6
First Quarter

Hourly Weather History & Observations

Time (CST) Temp. Dew Point Humidity Pressure Visibility Wind Dir Wind Speed Gust Speed Precip Events Conditions
12:02 AM 62.6 °F 60.8 °F 94% 30.13 in 8.0 mi East 3.5 mph - N/A   Overcast
12:19 AM 62.6 °F 59.0 °F 88% 30.13 in 8.0 mi SE 3.5 mph - N/A   Overcast
12:53 AM 62.1 °F 60.1 °F 93% 30.12 in 4.0 mi SSE 3.5 mph - 0.02 in Rain Light Rain
1:44 AM 62.6 °F 60.8 °F 94% 30.10 in 8.0 mi SSE 5.8 mph - 0.00 in   Overcast
1:53 AM 63.0 °F 60.1 °F 90% 30.10 in 8.0 mi South 6.9 mph - 0.00 in   Overcast
2:10 AM 62.6 °F 60.8 °F 94% 30.09 in 6.0 mi South 8.1 mph - N/A   Overcast
2:35 AM 62.6 °F 60.8 °F 94% 30.09 in 5.0 mi SSE 6.9 mph - 0.00 in Rain Light Rain
2:51 AM 62.6 °F 60.8 °F 94% 30.09 in 4.0 mi SSE 6.9 mph - 0.01 in Rain Light Rain
2:53 AM 63.0 °F 60.1 °F 90% 30.09 in 4.0 mi SSE 6.9 mph - 0.01 in Rain Light Rain
3:14 AM 62.6 °F 60.8 °F 94% 30.08 in 6.0 mi SSE 5.8 mph - 0.01 in Rain Light Rain
3:35 AM 62.6 °F 60.8 °F 94% 30.08 in 6.0 mi South 5.8 mph - 0.01 in Rain Light Rain
3:50 AM 62.6 °F 60.8 °F 94% 30.08 in 4.0 mi South 5.8 mph - 0.02 in Rain Light Rain
3:51 AM 63.0 °F 61.0 °F 93% 30.08 in 4.0 mi South 5.8 mph - 0.02 in Rain Light Rain
4:53 AM 64.0 °F 61.0 °F 90% 30.09 in 7.0 mi South 4.6 mph - 0.02 in Rain Light Rain
5:26 AM 64.4 °F 60.8 °F 88% 30.09 in 7.0 mi South 3.5 mph - 0.00 in   Overcast
5:37 AM 64.4 °F 60.8 °F 88% 30.09 in 7.0 mi SSW 3.5 mph - 0.00 in   Overcast
5:53 AM 64.0 °F 61.0 °F 90% 30.09 in 7.0 mi Calm Calm - 0.00 in   Overcast
6:53 AM 63.0 °F 61.0 °F 93% 30.10 in 5.0 mi ESE 3.5 mph - 0.02 in Rain Light Rain
7:53 AM 63.0 °F 60.1 °F 90% 30.12 in 3.0 mi East 3.5 mph - 0.00 in   Overcast
8:09 AM 62.6 °F 60.8 °F 94% 30.13 in 2.5 mi East 4.6 mph - N/A   Overcast
8:14 AM 62.6 °F 60.8 °F 94% 30.13 in 1.8 mi East 3.5 mph - N/A   Overcast
8:24 AM 62.6 °F 60.8 °F 94% 30.14 in 1.2 mi East 3.5 mph - N/A   Overcast
8:32 AM 62.6 °F 60.8 °F 94% 30.14 in 1.2 mi East 3.5 mph - N/A   Overcast
8:43 AM 62.6 °F 60.8 °F 94% 30.14 in 2.5 mi ESE 3.5 mph - N/A   Overcast
8:51 AM 62.6 °F 60.8 °F 94% 30.15 in 4.0 mi Calm Calm - N/A   Overcast
8:53 AM 63.0 °F 61.0 °F 93% 30.14 in 4.0 mi ESE 3.5 mph - N/A   Overcast
9:02 AM 62.6 °F 60.8 °F 94% 30.15 in 3.0 mi SE 4.6 mph - N/A   Overcast
9:30 AM 64.4 °F 62.6 °F 94% 30.15 in 1.8 mi ESE 4.6 mph - 0.01 in Rain Light Rain
9:36 AM 64.4 °F 62.6 °F 94% 30.15 in 2.0 mi ESE 5.8 mph - 0.02 in Rain Light Rain
9:51 AM 64.4 °F 60.8 °F 88% 30.16 in 2.0 mi SE 4.6 mph - 0.02 in Rain Light Rain
9:53 AM 64.0 °F 62.1 °F 93% 30.16 in 2.0 mi SE 4.6 mph - 0.02 in Rain Light Rain
10:03 AM 64.4 °F 62.6 °F 94% 30.16 in 3.0 mi ESE 3.5 mph - 0.00 in Rain Light Rain
10:53 AM 69.1 °F 66.0 °F 90% 30.14 in 7.0 mi SSE 10.4 mph - 0.00 in   Overcast
11:46 AM 71.6 °F 66.2 °F 83% 30.12 in 8.0 mi SSE 13.8 mph - N/A   Overcast
11:53 AM 71.1 °F 66.0 °F 84% 30.12 in 8.0 mi SSE 15.0 mph 21.9 mph N/A   Overcast
12:23 PM 69.8 °F 64.4 °F 83% 30.10 in 6.0 mi SSE 17.3 mph - 0.00 in Rain Light Rain
12:30 PM 69.8 °F 66.2 °F 88% 30.10 in 5.0 mi SSE 11.5 mph - 0.00 in Rain Light Rain
12:42 PM 69.8 °F 66.2 °F 88% 30.10 in 3.0 mi South 10.4 mph - 0.00 in Rain Light Rain
12:53 PM 70.0 °F 66.9 °F 90% 30.09 in 4.0 mi SSE 11.5 mph - 0.00 in Rain Light Rain
1:03 PM 69.8 °F 66.2 °F 88% 30.08 in 9.0 mi SSE 11.5 mph - 0.00 in   Overcast
1:26 PM 71.6 °F 66.2 °F 83% 30.06 in 8.0 mi SE 12.7 mph - 0.00 in   Overcast
1:44 PM 71.6 °F 66.2 °F 83% 30.05 in 8.0 mi SE 12.7 mph 20.7 mph 0.00 in   Overcast
1:53 PM 73.0 °F 68.0 °F 84% 30.04 in 8.0 mi SSE 11.5 mph - 0.00 in   Overcast
2:07 PM 71.6 °F 66.2 °F 83% 30.04 in 8.0 mi SSE 17.3 mph 23.0 mph N/A   Overcast
2:34 PM 69.8 °F 66.2 °F 88% 30.04 in 5.0 mi SSE 15.0 mph - 0.00 in Rain Light Rain
2:49 PM 69.8 °F 66.2 °F 88% 30.03 in 8.0 mi SE 12.7 mph - 0.00 in Rain Light Rain
2:53 PM 70.0 °F 66.9 °F 90% 30.03 in 8.0 mi SE 13.8 mph - 0.00 in   Overcast
3:53 PM 71.1 °F 66.0 °F 84% 30.03 in 7.0 mi SE 12.7 mph - N/A   Overcast
4:04 PM 69.8 °F 64.4 °F 83% 30.03 in 6.0 mi ESE 10.4 mph - 0.00 in Rain Light Rain
5:53 PM 69.1 °F 64.9 °F 87% 30.02 in 8.0 mi SSE 17.3 mph 23.0 mph N/A   Overcast
6:02 PM 69.8 °F 64.4 °F 83% 30.03 in 8.0 mi SSE 16.1 mph - N/A   Overcast
6:53 PM 68.0 °F 64.0 °F 87% 30.03 in 9.0 mi SSE 13.8 mph - N/A   Overcast
7:53 PM 69.1 °F 64.9 °F 87% 30.04 in 9.0 mi SSE 13.8 mph - N/A   Mostly Cloudy
8:50 PM 69.8 °F 64.4 °F 83% 30.05 in 9.0 mi SSE 10.4 mph - N/A   Overcast
8:53 PM 69.1 °F 64.9 °F 87% 30.06 in 8.0 mi SSE 12.7 mph - N/A   Overcast
9:07 PM 69.8 °F 64.4 °F 83% 30.05 in 8.0 mi SSE 12.7 mph - N/A   Overcast
9:53 PM 70.0 °F 64.9 °F 84% 30.05 in 9.0 mi SSE 10.4 mph - N/A   Overcast
10:25 PM 69.8 °F 64.4 °F 83% 30.04 in 9.0 mi SSE 11.5 mph - 0.00 in   Overcast
10:40 PM 69.8 °F 64.4 °F 83% 30.04 in 9.0 mi SSE 11.5 mph - 0.00 in   Overcast
10:53 PM 69.1 °F 64.9 °F 87% 30.04 in 9.0 mi SSE 9.2 mph - 0.00 in   Overcast
11:10 PM 69.8 °F 64.4 °F 83% 30.03 in 8.0 mi SSE 9.2 mph - 0.00 in Rain Light Rain
11:38 PM 69.8 °F 64.4 °F 83% 30.03 in 8.0 mi SSE 8.1 mph - 0.00 in   Overcast
11:53 PM 69.1 °F 64.9 °F 87% 30.01 in 8.0 mi SSE 9.2 mph - 0.00 in   Overcast